Location: Garshuizen
(53.3675°N, 6.7248°E)
Time: 22:37:36
(UTC+00:00)

Cosmos 2322 Rocket - Pass Details

Date: 15 May 2026
Orbit: 831 x 850 km, 71.0° (Epoch: 10 June)

Event Time Altitude Azimuth Distance (km) Brightness Sun altitude
Rises 20:32:13 0° 328° (NNW) 3,406 7.5 -8.2°
Reaches altitude 10° 20:34:40 10° 329° (NNW) 2,471 6.2 -8.4°
Maximum altitude 20:40:21 84° 58° (ENE) 857 2.3 -9.0°
Enters shadow 20:45:42 12° 147° (SSE) 2,339 3.8 -9.5°
